Weather History for Berlin Tegel, Germany

Change the Weather History Date:

Saturday, October 5, 2013

  Actual Average Record
Temperature  
Mean Temperature 50 °F -  
Max Temperature 55 °F 53 °F 77 °F (2004)
Min Temperature 46 °F 41 °F 41 °F (1996)
Degree Days  
Heating Degree Days 14    
Moisture  
Dew Point 38 °F    
Average Humidity 61    
Maximum Humidity 94    
Minimum Humidity 41    
Precipitation  
Precipitation 0.01 in - - ()
Sea Level Pressure  
Sea Level Pressure 30.08 in    
Wind  
Wind Speed 5 mph ()    
Max Wind Speed 9 mph    
Max Gust Speed -    
Visibility 10.7 miles    
Events Rain    
Averages and records for this station are not official NWS values.
T = Trace of Precipitation, MM = Missing Value Source: Averaged Metar Reports

Daily Weather History Graph

Daily Weather History Graph

Search for Another Location

Airport:

Trip Planner

Search our weather history database for the weather conditions in past years. The results will help you decide how hot, cold, wet, or windy it might be!

Date:

Astronomy

Oct. 05, 2013 Rise Set
Actual Time 7:14 AM CEST 6:34 PM CEST
Civil Twilight 6:40 AM CEST 7:08 PM CEST
Nautical Twilight 6:01 AM CEST 7:48 PM CEST
Astronomical Twilight 5:20 AM CEST 8:28 PM CEST
Moon 7:43 AM CEST (10/5) 6:31 PM CEST (10/5)
Length of Visible Light 12h 27m
Length of Day
11h 19m
New Moon, 0% of the Moon is Illuminated
Oct 5
New Moon
Oct 12
First Quarter
Oct 19
Full
Oct 27
Last Quarter
Nov 3
New

Hourly Weather History & Observations

Time (CEST) Temp. Windchill Dew Point Humidity Pressure Visibility Wind Dir Wind Speed Gust Speed Precip Events Conditions
12:00 AM 49 °F - 33 °F 41% 30.13 in 19 mi SSE 8.9 mph - -   Partly Cloudy
12:20 AM 48.2 °F - 32.0 °F 54% 30.12 in - SE 5.8 mph - N/A   Clear
12:50 AM 48.2 °F - 32.0 °F 54% 30.09 in - SE 6.9 mph - N/A   Clear
1:00 AM 48 °F - 33 °F 44% 30.11 in 22 mi SSE 8.9 mph - -   Scattered Clouds
1:20 AM 48.2 °F - 32.0 °F 54% 30.09 in - SE 6.9 mph - N/A   Clear
1:50 AM 48.2 °F - 32.0 °F 54% 30.09 in - SE 4.6 mph - N/A   Clear
2:00 AM 48 °F - 33 °F 44% 30.10 in 22 mi SSE 8.9 mph - -   Scattered Clouds
2:20 AM 48.2 °F - 32.0 °F 54% 30.09 in - SE 6.9 mph - N/A   Clear
2:50 AM 46.4 °F 42.9 °F 32.0 °F 57% 30.09 in - SSE 6.9 mph - N/A   Clear
3:00 AM 47 °F - 33 °F 46% 30.10 in 19 mi SSE 8.9 mph - -   Partly Cloudy
3:20 AM 46.4 °F 42.9 °F 33.8 °F 62% 30.09 in - SE 6.9 mph - N/A   Clear
3:50 AM 48.2 °F - 33.8 °F 58% 30.09 in - SE 6.9 mph - N/A   Clear
4:20 AM 48.2 °F - 32.0 °F 54% 30.06 in - SE 6.9 mph - N/A   Clear
4:50 AM 48.2 °F - 33.8 °F 58% 30.06 in - ESE 6.9 mph - N/A   Clear
5:00 AM 48 °F - 33 °F 45% 30.07 in 12 mi SE 8.9 mph - -   Partly Cloudy
5:20 AM 48.2 °F - 33.8 °F 58% 30.06 in - SE 5.8 mph - N/A   Clear
5:50 AM 48.2 °F - 33.8 °F 58% 30.06 in - SE 5.8 mph - N/A   Clear
6:00 AM 47 °F - 34 °F 48% 30.06 in 11 mi SSE 6.7 mph - -   Mostly Cloudy
6:20 AM 48.2 °F - 33.8 °F 58% 30.06 in - SE 6.9 mph - N/A   Clear
6:50 AM 48.2 °F - 33.8 °F 58% 30.06 in - SE 5.8 mph - N/A   Clear
7:00 AM 47 °F - 34 °F 49% 30.06 in 16 mi SSE 6.7 mph - -   Mostly Cloudy
7:20 AM 48.2 °F - 33.8 °F 58% 30.06 in - SE 6.9 mph - N/A   Clear
7:50 AM 48.2 °F - 33.8 °F 58% 30.06 in - SE 4.6 mph - N/A   Clear
8:00 AM 48 °F - 35 °F 48% 30.06 in 16 mi SSE 4.5 mph - -   Overcast
8:20 AM 48.2 °F - 33.8 °F 58% 30.06 in - ESE 6.9 mph - N/A   Clear
8:50 AM 48.2 °F - 33.8 °F 58% 30.06 in - SE 5.8 mph - N/A   Clear
9:00 AM 48 °F - 35 °F 49% 30.07 in 19 mi SSE 6.7 mph - -   Overcast
9:20 AM 48.2 °F - 35.6 °F 62% 30.06 in - ESE 8.1 mph - N/A   Clear
9:50 AM 48.2 °F - 33.8 °F 58% 30.06 in - SE 5.8 mph - N/A   Clear
10:00 AM 49 °F - 35 °F 47% 30.06 in 19 mi SSE 6.7 mph - -   Mostly Cloudy
10:20 AM 48.2 °F - 35.6 °F 62% 30.06 in - SE 4.6 mph - N/A   Clear
10:50 AM 50.0 °F - 35.6 °F 58% 30.06 in - SE 4.6 mph - N/A   Clear
11:00 AM 49 °F - 36 °F 50% 30.07 in 19 mi SE 4.5 mph - -   Overcast
11:20 AM 50.0 °F - 37.4 °F 62% 30.06 in 6.2 mi ESE 4.6 mph - N/A   Mostly Cloudy
11:50 AM 50.0 °F - 35.6 °F 58% 30.06 in - ESE 5.8 mph - N/A   Clear
12:20 PM 50.0 °F - 37.4 °F 62% 30.06 in - SE 6.9 mph - N/A   Clear
12:50 PM 51.8 °F - 37.4 °F 58% 30.06 in - SE 5.8 mph - N/A   Clear
1:00 PM 51 °F - 37 °F 48% 30.07 in 19 mi SE 4.5 mph - -   Overcast
1:20 PM 51.8 °F - 37.4 °F 58% 30.06 in - ESE 4.6 mph - N/A   Clear
1:50 PM 53.6 °F - 37.4 °F 54% 30.06 in - ESE 3.5 mph - N/A   Clear
2:00 PM 53 °F - 38 °F 46% 30.07 in 19 mi SSE 4.5 mph - -   Overcast
2:20 PM 53.6 °F - 39.2 °F 58% 30.06 in - ESE 3.5 mph - N/A   Clear
2:50 PM 53.6 °F - 39.2 °F 58% 30.06 in - Variable 3.5 mph - N/A   Clear
3:00 PM 54 °F - 39 °F 45% 30.06 in 19 mi ESE 2.2 mph - -   Overcast
3:20 PM 55.4 °F - 39.2 °F 54% 30.06 in 6.2 mi Variable 1.2 mph - N/A   Mostly Cloudy
3:50 PM 55.4 °F - 39.2 °F 54% 30.06 in 6.2 mi Variable 2.3 mph - N/A   Mostly Cloudy
4:00 PM 55 °F - 40 °F 45% 30.06 in 19 mi ESE 2.2 mph - -   Overcast
4:20 PM 55.4 °F - 39.2 °F 54% 30.06 in 6.2 mi Variable 2.3 mph - N/A   Mostly Cloudy
4:50 PM 55.4 °F - 41.0 °F 58% 30.06 in 6.2 mi North 3.5 mph - N/A Rain Light Rain
5:00 PM 56 °F - 42 °F 48% 30.06 in 16 mi North 2.2 mph - - Rain Light Rain
5:20 PM 55.4 °F - 41.0 °F 58% 30.06 in 6.2 mi NNE 2.3 mph - N/A   Mostly Cloudy
5:50 PM 55.4 °F - 41.0 °F 58% 30.06 in 6.2 mi Variable 1.2 mph - N/A   Mostly Cloudy
6:00 PM 56 °F - 41 °F 47% 30.07 in 14 mi ENE 2.2 mph - - Rain Light Rain
6:20 PM 55.4 °F - 41.0 °F 58% 30.06 in 6.2 mi NNE 2.3 mph - N/A Rain Light Rain
6:50 PM 55.4 °F - 42.8 °F 63% 30.06 in 6.2 mi Variable 2.3 mph - N/A Rain Light Rain
7:00 PM 55 °F - 43 °F 53% 30.08 in 12 mi NE 2.2 mph - - Rain Light Rain
7:20 PM 53.6 °F - 44.6 °F 72% 30.09 in 6.2 mi NNW 4.6 mph - N/A Rain Light Rain
7:50 PM 51.8 °F - 48.2 °F 88% 30.09 in 6.2 mi NNW 5.8 mph - N/A Rain Light Rain
8:00 PM 52 °F - 48 °F 80% 30.10 in 9 mi North 4.5 mph - - Rain Light Rain
8:20 PM 51.8 °F - 48.2 °F 88% 30.09 in 6.2 mi NNW 5.8 mph - N/A Rain Light Rain
8:50 PM 50.0 °F - 48.2 °F 94% 30.09 in 6.2 mi NNW 4.6 mph - N/A Rain Light Rain
9:00 PM 51 °F - 48 °F 87% 30.11 in 7 mi North 4.5 mph - - Rain Light Rain
9:20 PM 50.0 °F - 48.2 °F 94% 30.12 in 6.2 mi NNW 4.6 mph - N/A Rain Light Rain
9:50 PM 50.0 °F - 48.2 °F 94% 30.12 in 6.2 mi North 1.2 mph - N/A Rain Light Rain
10:00 PM 50 °F - 48 °F 90% 30.12 in 7 mi NNE 2.2 mph - - Rain Light Rain
10:20 PM 50.0 °F - 48.2 °F 94% 30.12 in 6.2 mi NW 4.6 mph - N/A Rain Light Rain
10:50 PM 50.0 °F - 48.2 °F 94% 30.12 in 6.2 mi WNW 2.3 mph - N/A   Mostly Cloudy
11:00 PM 49 °F - 48 °F 94% 30.13 in 9 mi NW 4.5 mph - - Rain Light Rain
11:20 PM 50.0 °F - 48.2 °F 94% 30.12 in 6.2 mi NW 5.8 mph - N/A   Mostly Cloudy
11:50 PM 50.0 °F - 48.2 °F 94% 30.12 in 6.2 mi WNW 3.5 mph - N/A Rain Light Rain